Spencer, IA

5:28 AM CDT on August 24, 2017 (GMT -0500)
Spencer Municipal

Weather History for KSPW - November, 2012

Change the Weather History Date:

Wednesday, November 7, 2012

  Actual Average Record
Temperature  
Mean Temperature 38 °F -  
Max Temperature 48 °F 47 °F 73 °F (2001)
Min Temperature 28 °F 27 °F -7 °F (1991)
Degree Days  
Heating Degree Days 27    
Moisture  
Dew Point 31 °F    
Average Humidity 73    
Maximum Humidity 92    
Minimum Humidity 52    
Precipitation  
Precipitation 0.00 in - - ()
Sea Level Pressure  
Sea Level Pressure 30.10 in    
Wind  
Wind Speed 8 mph (SW)    
Max Wind Speed 14 mph    
Max Gust Speed -    
Visibility 10 miles    
Events      
Averages and records for this station are not official NWS values.
T = Trace of Precipitation, MM = Missing Value Source: NWS Daily Summary

Daily Weather History Graph

Daily Weather History Graph

Search for Another Location

Airport or City:

Trip Planner

Search our weather history database for the weather conditions in past years. The results will help you decide how hot, cold, wet, or windy it might be!

Date:

Astronomy

Nov. 07, 2012 Rise Set
Actual Time 7:04 AM CST 5:04 PM CST
Civil Twilight 6:33 AM CST 5:34 PM CST
Nautical Twilight 5:59 AM CST 6:08 PM CST
Astronomical Twilight 5:26 AM CST 6:41 PM CST
Moon No Moon Rise 1:24 PM CST (11/7)
Length of Visible Light 11h 00m
Length of Day
10h 00m
Last Quarter, 43% of the Moon is Illuminated
Nov 7
Last Quarter
Nov 13
New
Nov 20
First Quarter
Nov 28
Full
Dec 6
Last Quarter

Hourly Weather History & Observations

Time (CST) Temp. Windchill Dew Point Humidity Pressure Visibility Wind Dir Wind Speed Gust Speed Precip Events Conditions
12:53 AM 42.1 °F 34.9 °F 33.1 °F 70% 30.06 in 10.0 mi NNW 13.8 mph - N/A   Overcast
1:53 AM 41.0 °F 34.3 °F 32.0 °F 70% 30.07 in 10.0 mi NNW 11.5 mph - N/A   Overcast
2:53 AM 39.9 °F 33.4 °F 32.0 °F 73% 30.09 in 10.0 mi NW 10.4 mph - N/A   Overcast
3:53 AM 36.0 °F 30.3 °F 30.9 °F 82% 30.09 in 10.0 mi NNW 6.9 mph - N/A   Partly Cloudy
4:53 AM 30.0 °F 22.4 °F 28.0 °F 92% 30.12 in 10.0 mi WNW 8.1 mph - N/A   Clear
5:53 AM 30.9 °F 23.5 °F 28.0 °F 89% 30.14 in 10.0 mi NW 8.1 mph - N/A   Clear
6:53 AM 28.0 °F 21.7 °F 26.1 °F 92% 30.15 in 10.0 mi West 5.8 mph - N/A   Clear
7:53 AM 30.9 °F 25.2 °F 28.0 °F 89% 30.16 in 10.0 mi NW 5.8 mph - N/A   Clear
8:53 AM 36.0 °F 32.1 °F 30.9 °F 82% 30.17 in 10.0 mi WNW 4.6 mph - N/A   Clear
9:53 AM 43.0 °F 40.3 °F 33.1 °F 68% 30.17 in 10.0 mi NNW 4.6 mph - N/A   Clear
10:53 AM 44.1 °F - 33.1 °F 65% 30.17 in 10.0 mi Calm Calm - N/A   Clear
11:53 AM 46.0 °F - 30.9 °F 56% 30.14 in 10.0 mi Calm Calm - N/A   Clear
12:53 PM 46.9 °F - 30.9 °F 54% 30.12 in 10.0 mi SSW 4.6 mph - N/A   Clear
1:53 PM 48.0 °F - 30.9 °F 52% 30.11 in 10.0 mi Variable 3.5 mph - N/A   Mostly Cloudy
2:53 PM 48.0 °F - 30.9 °F 52% 30.09 in 10.0 mi Calm Calm - N/A   Clear
3:53 PM 48.0 °F - 32.0 °F 54% 30.09 in 10.0 mi South 4.6 mph - N/A   Clear
4:53 PM 45.0 °F 41.2 °F 33.1 °F 63% 30.09 in 10.0 mi SE 6.9 mph - N/A   Clear
5:53 PM 39.0 °F 33.4 °F 30.9 °F 73% 30.08 in 10.0 mi SSE 8.1 mph - N/A   Clear
6:53 PM 39.0 °F 33.4 °F 32.0 °F 76% 30.08 in 10.0 mi SE 8.1 mph - N/A   Clear
7:53 PM 37.9 °F 30.9 °F 32.0 °F 79% 30.07 in 10.0 mi SE 10.4 mph - N/A   Clear
8:53 PM 37.0 °F 29.8 °F 30.9 °F 79% 30.07 in 10.0 mi SSE 10.4 mph - N/A   Clear
9:53 PM 35.1 °F 28.6 °F 30.9 °F 85% 30.08 in 10.0 mi SSE 8.1 mph - N/A   Clear
10:53 PM 36.0 °F 28.0 °F 30.9 °F 82% 30.06 in 10.0 mi SSE 11.5 mph - N/A   Clear
11:53 PM 36.0 °F 27.5 °F 30.9 °F 82% 30.04 in 10.0 mi SSE 12.7 mph - N/A   Clear